Time,TemperatureF,DewpointF,PressureIn,WindDirection,WindDirectionDegrees,WindSpeedMPH,WindSpeedGustMPH,Humidity,HourlyPrecipIn,Conditions,Clouds,dailyrainin,SolarRadiationWatts/m^2,SoftwareType,DateUTC
2013-05-22 00:01:00,62.4,58.2,29.66,WSW,244,0.0,0.0,86,0.00,RA,,0.00,0.0,WeatherDisplay:10.37,2013-05-22 05:01:00,
2013-05-22 00:06:00,62.3,58.1,29.66,WSW,244,0.0,0.0,86,0.00,RA,,0.00,0.0,WeatherDisplay:10.37,2013-05-22 05:06:00,
2013-05-22 00:11:00,62.1,58.2,29.66,WSW,244,0.0,0.0,87,0.00,CLR,,0.00,0.0,WeatherDisplay:10.37,2013-05-22 05:11:00,
2013-05-22 00:16:00,62.1,58.2,29.66,WSW,244,0.0,0.0,87,0.00,CLR,,0.00,0.0,WeatherDisplay:10.37,2013-05-22 05:16:00,
2013-05-22 00:21:00,62.1,58.5,29.66,WSW,244,0.0,0.0,88,0.00,CLR,,0.00,0.0,WeatherDisplay:10.37,2013-05-22 05:21:00,
2013-05-22 00:26:00,62.0,58.4,29.66,WSW,244,0.0,0.0,88,0.00,CLR,,0.00,0.0,WeatherDisplay:10.37,2013-05-22 05:26:00,
2013-05-22 00:31:00,61.8,58.5,29.66,WSW,244,0.0,0.0,89,0.00,CLR,,0.00,0.0,WeatherDisplay:10.37,2013-05-22 05:31:00,
2013-05-22 00:36:00,61.8,58.5,29.66,WSW,244,0.0,0.0,89,0.00,CLR,,0.00,0.0,WeatherDisplay:10.37,2013-05-22 05:36:00,
2013-05-22 00:41:00,61.6,58.3,29.66,WSW,244,0.0,0.0,89,0.00,BKN,,0.00,0.0,WeatherDisplay:10.37,2013-05-22 05:41:00,
2013-05-22 00:46:00,61.6,58.3,29.66,WSW,244,0.0,0.0,89,0.00,BKN,,0.00,0.0,WeatherDisplay:10.37,2013-05-22 05:46:00,
2013-05-22 00:51:00,61.6,58.3,29.66,WSW,244,0.0,0.0,89,0.00,BKN,,0.00,0.0,WeatherDisplay:10.37,2013-05-22 05:51:00,
2013-05-22 00:56:00,61.6,58.3,29.66,WSW,244,0.0,0.0,89,0.00,BKN,,0.00,0.0,WeatherDisplay:10.37,2013-05-22 05:56:00,
2013-05-22 01:01:00,61.5,58.5,29.65,WSW,244,0.0,0.0,90,0.00,OVC,,0.00,0.0,WeatherDisplay:10.37,2013-05-22 06:01:00,
2013-05-22 01:06:00,61.3,58.3,29.65,WSW,244,0.0,0.0,90,0.00,OVC,,0.00,0.0,WeatherDisplay:10.37,2013-05-22 06:06:00,
2013-05-22 01:11:00,61.3,58.3,29.65,WSW,244,0.0,0.0,90,0.00,OVC,,0.00,0.0,WeatherDisplay:10.37,2013-05-22 06:11:00,
2013-05-22 01:16:00,61.2,58.2,29.66,WSW,244,0.0,0.0,90,0.00,OVC,,0.00,0.0,WeatherDisplay:10.37,2013-05-22 06:16:00,
2013-05-22 01:21:00,61.2,58.6,29.66,WSW,244,0.0,0.0,91,0.00,OVC,,0.00,0.0,WeatherDisplay:10.37,2013-05-22 06:21:00,
2013-05-22 01:26:00,61.2,58.6,29.66,WSW,244,0.0,0.0,91,0.00,OVC,,0.00,0.0,WeatherDisplay:10.37,2013-05-22 06:26:00,
2013-05-22 01:31:00,61.2,58.6,29.66,WSW,244,0.0,0.0,91,0.00,OVC,,0.00,0.0,WeatherDisplay:10.37,2013-05-22 06:31:00,
2013-05-22 01:36:00,61.0,58.4,29.66,WSW,244,0.0,0.0,91,0.00,OVC,,0.00,0.0,WeatherDisplay:10.37,2013-05-22 06:36:00,
2013-05-22 01:41:00,61.0,58.4,29.66,WSW,244,0.0,0.0,91,0.00,OVC,,0.00,0.0,WeatherDisplay:10.37,2013-05-22 06:41:00,
2013-05-22 01:46:00,60.9,58.3,29.66,WSW,244,0.0,0.0,91,0.00,OVC,,0.00,0.0,WeatherDisplay:10.37,2013-05-22 06:46:00,
2013-05-22 01:51:00,60.9,58.6,29.66,WSW,244,0.0,0.0,92,0.00,OVC,,0.00,0.0,WeatherDisplay:10.37,2013-05-22 06:51:00,
2013-05-22 01:56:00,60.9,58.6,29.66,WSW,244,0.0,0.0,92,0.00,OVC,,0.00,0.0,WeatherDisplay:10.37,2013-05-22 06:56:00,
2013-05-22 02:01:00,60.9,58.6,29.66,WSW,244,0.0,0.0,92,0.00,OVC,,0.00,0.0,WeatherDisplay:10.37,2013-05-22 07:01:00,
2013-05-22 02:06:00,61.0,58.7,29.66,WSW,244,0.0,0.0,92,0.00,OVC,,0.00,0.0,WeatherDisplay:10.37,2013-05-22 07:06:00,
2013-05-22 02:11:00,60.9,58.6,29.66,WSW,244,0.0,0.0,92,0.00,OVC,,0.00,0.0,WeatherDisplay:10.37,2013-05-22 07:11:00,
2013-05-22 02:16:00,60.7,58.4,29.65,WSW,244,0.0,0.0,92,0.00,OVC,,0.00,0.0,WeatherDisplay:10.37,2013-05-22 07:16:00,
2013-05-22 02:21:00,60.5,58.2,29.65,WSW,244,0.0,0.0,92,0.00,OVC,,0.00,0.0,WeatherDisplay:10.37,2013-05-22 07:21:00,
2013-05-22 02:26:00,60.2,57.9,29.65,WSW,244,0.0,0.0,92,0.00,OVC,,0.00,0.0,WeatherDisplay:10.37,2013-05-22 07:26:00,
2013-05-22 02:31:00,59.9,57.6,29.65,WSW,244,0.0,0.0,92,0.00,OVC,,0.00,0.0,WeatherDisplay:10.37,2013-05-22 07:31:00,
2013-05-22 02:36:00,59.9,57.6,29.65,WSW,244,0.0,0.0,92,0.00,OVC,,0.00,0.0,WeatherDisplay:10.37,2013-05-22 07:36:00,
2013-05-22 02:41:00,59.9,57.9,29.65,WSW,244,0.0,0.0,93,0.00,OVC,,0.00,0.0,WeatherDisplay:10.37,2013-05-22 07:41:00,
2013-05-22 02:46:00,59.8,57.8,29.64,WSW,244,0.0,0.0,93,0.00,OVC,,0.00,0.0,WeatherDisplay:10.37,2013-05-22 07:46:00,
2013-05-22 02:51:00,59.6,57.6,29.64,WSW,244,0.0,0.0,93,0.00,OVC,,0.00,0.0,WeatherDisplay:10.37,2013-05-22 07:51:00,
2013-05-22 02:56:00,59.5,57.5,29.64,WSW,244,0.0,0.0,93,0.00,OVC,,0.00,0.0,WeatherDisplay:10.37,2013-05-22 07:56:00,
2013-05-22 03:01:00,59.3,57.6,29.64,WSW,244,0.0,0.0,94,0.00,OVC,,0.00,0.0,WeatherDisplay:10.37,2013-05-22 08:01:00,
2013-05-22 03:06:00,59.2,57.5,29.64,WSW,244,0.0,0.0,94,0.00,OVC,,0.00,0.0,WeatherDisplay:10.37,2013-05-22 08:06:00,
2013-05-22 03:11:00,59.2,57.5,29.64,WSW,244,0.0,0.0,94,0.00,OVC,,0.00,0.0,WeatherDisplay:10.37,2013-05-22 08:11:00,
2013-05-22 03:16:00,59.0,57.3,29.64,WSW,244,0.0,0.0,94,0.00,OVC,,0.00,0.0,WeatherDisplay:10.37,2013-05-22 08:16:00,
2013-05-22 03:21:00,58.7,57.0,29.64,WSW,244,0.0,0.0,94,0.00,OVC,,0.00,0.0,WeatherDisplay:10.37,2013-05-22 08:21:00,
2013-05-22 03:26:00,58.6,56.9,29.64,WSW,244,0.0,0.0,94,0.00,OVC,,0.00,0.0,WeatherDisplay:10.37,2013-05-22 08:26:00,
2013-05-22 03:31:00,58.4,56.7,29.64,WSW,244,0.0,0.0,94,0.00,OVC,,0.00,0.0,WeatherDisplay:10.37,2013-05-22 08:31:00,
2013-05-22 03:36:00,58.3,56.6,29.64,WSW,244,0.0,0.0,94,0.00,OVC,,0.00,0.0,WeatherDisplay:10.37,2013-05-22 08:36:00,
2013-05-22 03:41:00,58.3,56.6,29.64,WSW,244,0.0,0.0,94,0.00,OVC,,0.00,0.0,WeatherDisplay:10.37,2013-05-22 08:41:00,
2013-05-22 03:46:00,58.3,56.6,29.64,WSW,244,0.0,0.0,94,0.00,OVC,,0.00,0.0,WeatherDisplay:10.37,2013-05-22 08:46:00,
2013-05-22 03:51:00,58.1,56.4,29.64,WSW,244,0.0,0.0,94,0.00,OVC,,0.00,0.0,WeatherDisplay:10.37,2013-05-22 08:51:00,
2013-05-22 03:56:00,58.1,56.4,29.64,WSW,244,0.0,0.0,94,0.00,OVC,,0.00,0.0,WeatherDisplay:10.37,2013-05-22 08:56:00,
2013-05-22 04:01:00,58.1,56.4,29.63,WSW,244,0.0,0.0,94,0.00,OVC,,0.00,0.0,WeatherDisplay:10.37,2013-05-22 09:01:00,
2013-05-22 04:06:00,58.3,56.9,29.63,WSW,244,0.0,0.0,95,0.00,OVC,,0.00,0.0,WeatherDisplay:10.37,2013-05-22 09:06:00,
2013-05-22 04:11:00,58.4,57.0,29.63,WSW,244,0.0,0.0,95,0.00,OVC,,0.00,0.0,WeatherDisplay:10.37,2013-05-22 09:11:00,
2013-05-22 04:16:00,58.3,56.6,29.63,WSW,244,0.0,0.0,94,0.00,OVC,,0.00,0.0,WeatherDisplay:10.37,2013-05-22 09:16:00,
2013-05-22 04:21:00,58.3,56.6,29.63,WSW,244,0.0,0.0,94,0.00,OVC,,0.00,0.0,WeatherDisplay:10.37,2013-05-22 09:21:00,
2013-05-22 04:26:00,58.1,56.4,29.63,WSW,244,0.0,0.0,94,0.00,OVC,,0.00,0.0,WeatherDisplay:10.37,2013-05-22 09:26:00,
2013-05-22 04:31:00,58.1,56.4,29.63,WSW,244,0.0,0.0,94,0.00,OVC,,0.00,0.0,WeatherDisplay:10.37,2013-05-22 09:31:00,
2013-05-22 04:36:00,58.1,56.4,29.63,WSW,244,0.0,0.0,94,0.00,OVC,,0.00,0.0,WeatherDisplay:10.37,2013-05-22 09:36:00,
2013-05-22 04:41:00,58.1,56.4,29.63,WSW,244,0.0,0.0,94,0.00,OVC,,0.00,0.0,WeatherDisplay:10.37,2013-05-22 09:41:00,
2013-05-22 04:46:00,58.1,56.4,29.63,WSW,244,0.0,0.0,94,0.00,OVC,,0.00,0.0,WeatherDisplay:10.37,2013-05-22 09:46:00,
2013-05-22 04:51:00,58.3,56.6,29.63,WSW,244,0.0,0.0,94,0.00,OVC,,0.00,0.0,WeatherDisplay:10.37,2013-05-22 09:51:00,
2013-05-22 04:56:00,58.3,56.6,29.63,WSW,244,0.0,0.0,94,0.00,OVC,,0.00,0.0,WeatherDisplay:10.37,2013-05-22 09:56:00,
2013-05-22 05:01:00,58.3,56.9,29.64,WSW,244,0.0,0.0,95,0.00,OVC,,0.00,0.0,WeatherDisplay:10.37,2013-05-22 10:01:00,
2013-05-22 05:06:00,58.4,57.0,29.64,WSW,244,0.0,0.0,95,0.00,OVC,,0.00,0.0,WeatherDisplay:10.37,2013-05-22 10:06:00,
2013-05-22 05:11:00,58.4,56.7,29.64,WSW,244,0.0,0.0,94,0.00,OVC,,0.00,0.0,WeatherDisplay:10.37,2013-05-22 10:11:00,
2013-05-22 05:16:00,58.4,57.0,29.64,WSW,244,0.0,0.0,95,0.00,OVC,,0.00,0.0,WeatherDisplay:10.37,2013-05-22 10:16:00,
2013-05-22 05:21:00,58.4,57.0,29.64,WSW,244,0.0,0.0,95,0.00,OVC,,0.00,0.0,WeatherDisplay:10.37,2013-05-22 10:21:00,
2013-05-22 05:26:00,58.4,57.0,29.64,WSW,244,0.0,0.0,95,0.00,OVC,,0.00,0.0,WeatherDisplay:10.37,2013-05-22 10:26:00,
2013-05-22 05:31:00,58.4,57.0,29.64,WSW,244,0.0,0.0,95,0.00,OVC,,0.00,0.0,WeatherDisplay:10.37,2013-05-22 10:31:00,
2013-05-22 05:36:00,58.4,57.0,29.64,WSW,244,0.0,0.0,95,0.00,OVC,,0.00,0.0,WeatherDisplay:10.37,2013-05-22 10:36:00,
2013-05-22 05:41:00,58.4,57.0,29.64,WSW,244,0.0,0.0,95,0.00,OVC,,0.00,5.0,WeatherDisplay:10.37,2013-05-22 10:41:00,
2013-05-22 05:46:00,58.4,57.0,29.64,WSW,244,0.0,0.0,95,0.00,OVC,,0.00,11.0,WeatherDisplay:10.37,2013-05-22 10:46:00,
2013-05-22 05:51:00,58.3,56.9,29.64,WSW,244,0.0,0.0,95,0.00,OVC,,0.00,16.0,WeatherDisplay:10.37,2013-05-22 10:51:00,
2013-05-22 05:56:00,58.3,56.9,29.64,WSW,244,0.0,0.0,95,0.00,OVC,,0.00,14.0,WeatherDisplay:10.37,2013-05-22 10:56:00,
2013-05-22 06:01:00,58.3,56.9,29.64,WSW,244,0.0,0.0,95,0.00,OVC,,0.00,9.0,WeatherDisplay:10.37,2013-05-22 11:01:00,
2013-05-22 06:06:00,58.4,57.0,29.64,WSW,244,0.0,0.0,95,0.00,OVC,,0.00,9.0,WeatherDisplay:10.37,2013-05-22 11:06:00,
2013-05-22 06:11:00,58.4,57.0,29.64,WSW,244,0.0,0.0,95,0.00,OVC,,0.00,7.0,WeatherDisplay:10.37,2013-05-22 11:11:00,
2013-05-22 06:16:00,58.6,57.2,29.64,WSW,244,0.0,0.0,95,0.00,OVC,,0.00,12.0,WeatherDisplay:10.37,2013-05-22 11:16:00,
2013-05-22 06:21:00,58.6,57.2,29.64,WSW,244,0.0,0.0,95,0.00,OVC,,0.00,21.0,WeatherDisplay:10.37,2013-05-22 11:21:00,
2013-05-22 06:26:00,58.6,57.2,29.64,WSW,244,0.0,0.0,95,0.00,OVC,,0.00,26.0,WeatherDisplay:10.37,2013-05-22 11:26:00,
2013-05-22 06:31:00,58.6,57.2,29.64,WSW,244,0.0,0.0,95,0.00,OVC,,0.00,35.0,WeatherDisplay:10.37,2013-05-22 11:31:00,
2013-05-22 06:36:00,58.4,57.0,29.64,WSW,244,0.0,0.0,95,0.00,OVC,,0.00,46.0,WeatherDisplay:10.37,2013-05-22 11:36:00,
2013-05-22 06:41:00,58.4,57.3,29.64,WSW,244,0.0,0.0,96,0.00,OVC,,0.00,47.0,WeatherDisplay:10.37,2013-05-22 11:41:00,
2013-05-22 06:46:00,58.4,57.3,29.63,WSW,244,0.0,0.0,96,0.00,OVC,,0.00,32.0,WeatherDisplay:10.37,2013-05-22 11:46:00,
2013-05-22 06:51:00,58.6,57.5,29.63,WSW,244,0.0,0.0,96,0.00,OVC,,0.00,25.0,WeatherDisplay:10.37,2013-05-22 11:51:00,
2013-05-22 06:56:00,58.6,57.2,29.63,WSW,244,0.0,0.0,95,0.00,OVC,,0.00,32.0,WeatherDisplay:10.37,2013-05-22 11:56:00,
2013-05-22 07:01:00,58.7,57.6,29.64,WSW,244,0.0,0.0,96,0.00,OVC,,0.00,46.0,WeatherDisplay:10.37,2013-05-22 12:01:00,
2013-05-22 07:06:00,58.7,57.3,29.64,WSW,244,0.0,0.0,95,0.00,OVC,,0.00,49.0,WeatherDisplay:10.37,2013-05-22 12:06:00,
2013-05-22 07:11:00,58.9,57.5,29.64,WSW,244,0.0,0.0,95,0.00,OVC,,0.00,62.0,WeatherDisplay:10.37,2013-05-22 12:11:00,
2013-05-22 07:16:00,59.0,57.9,29.64,WSW,244,0.0,0.0,96,0.00,OVC,,0.00,32.0,WeatherDisplay:10.37,2013-05-22 12:16:00,
2013-05-22 07:21:00,59.2,57.8,29.64,WSW,244,0.0,0.0,95,0.00,OVC,,0.00,25.0,WeatherDisplay:10.37,2013-05-22 12:21:00,
2013-05-22 07:26:00,59.2,57.8,29.64,WSW,244,0.0,0.0,95,0.00,OVC,,0.00,32.0,WeatherDisplay:10.37,2013-05-22 12:26:00,
2013-05-22 07:31:00,59.2,57.8,29.64,WSW,244,0.0,0.0,95,0.00,OVC,,0.00,60.0,WeatherDisplay:10.37,2013-05-22 12:31:00,
2013-05-22 07:36:00,59.2,57.8,29.64,WSW,244,0.0,1.2,95,0.00,OVC,,0.00,111.0,WeatherDisplay:10.37,2013-05-22 12:36:00,
2013-05-22 07:41:00,59.5,58.1,29.64,WSW,244,0.0,0.0,95,0.00,OVC,,0.00,142.0,WeatherDisplay:10.37,2013-05-22 12:41:00,
2013-05-22 07:46:00,59.6,57.9,29.62,WSW,244,0.0,0.0,94,0.00,OVC,,0.00,139.0,WeatherDisplay:10.37,2013-05-22 12:46:00,
2013-05-22 07:51:00,59.6,57.9,29.62,WSW,244,1.3,3.6,94,0.00,OVC,,0.00,137.0,WeatherDisplay:10.37,2013-05-22 12:51:00,
2013-05-22 07:56:00,59.9,58.2,29.62,WSW,244,0.0,0.0,94,0.00,OVC,,0.00,141.0,WeatherDisplay:10.37,2013-05-22 12:56:00,
2013-05-22 08:01:00,59.9,57.9,29.62,WSW,244,0.0,2.3,93,0.00,OVC,,0.00,142.0,WeatherDisplay:10.37,2013-05-22 13:01:00,
2013-05-22 08:06:00,59.9,57.6,29.62,WSW,244,0.0,0.0,92,0.00,OVC,,0.00,132.0,WeatherDisplay:10.37,2013-05-22 13:06:00,
2013-05-22 08:11:00,60.2,57.6,29.62,WSW,244,0.0,0.0,91,0.00,OVC,,0.00,121.0,WeatherDisplay:10.37,2013-05-22 13:11:00,
2013-05-22 08:16:00,60.4,57.8,29.62,WSW,244,0.0,0.0,91,0.00,OVC,,0.00,162.0,WeatherDisplay:10.37,2013-05-22 13:16:00,
2013-05-22 08:21:00,60.5,57.6,29.62,WSW,244,0.0,0.0,90,0.00,OVC,,0.00,174.0,WeatherDisplay:10.37,2013-05-22 13:21:00,
2013-05-22 08:26:00,60.7,57.7,29.62,WSW,244,0.0,0.0,90,0.00,OVC,,0.00,174.0,WeatherDisplay:10.37,2013-05-22 13:26:00,
2013-05-22 08:31:00,60.9,57.3,29.62,WSW,244,0.0,0.0,88,0.00,OVC,,0.00,163.0,WeatherDisplay:10.37,2013-05-22 13:31:00,
2013-05-22 08:36:00,61.0,57.4,29.62,WSW,244,0.0,1.2,88,0.00,OVC,,0.00,141.0,WeatherDisplay:10.37,2013-05-22 13:36:00,
2013-05-22 08:41:00,61.2,57.3,29.62,WSW,244,0.0,0.0,87,0.00,OVC,,0.00,125.0,WeatherDisplay:10.37,2013-05-22 13:41:00,
2013-05-22 08:46:00,61.3,57.4,29.62,WSW,244,0.0,1.2,87,0.00,OVC,,0.00,149.0,WeatherDisplay:10.37,2013-05-22 13:46:00,
2013-05-22 08:51:00,61.5,57.6,29.62,WSW,244,0.0,0.0,87,0.00,OVC,,0.00,176.0,WeatherDisplay:10.37,2013-05-22 13:51:00,
2013-05-22 08:56:00,61.8,57.6,29.62,WSW,244,0.1,1.2,86,0.00,OVC,,0.00,163.0,WeatherDisplay:10.37,2013-05-22 13:56:00,
2013-05-22 09:01:00,62.0,57.4,29.62,WSW,244,0.0,1.2,85,0.00,OVC,,0.00,135.0,WeatherDisplay:10.37,2013-05-22 14:01:00,
2013-05-22 09:06:00,62.1,57.5,29.62,WSW,244,0.0,0.0,85,0.00,OVC,,0.00,120.0,WeatherDisplay:10.37,2013-05-22 14:06:00,
2013-05-22 09:11:00,62.3,57.7,29.62,WSW,244,0.0,0.0,85,0.00,OVC,,0.00,113.0,WeatherDisplay:10.37,2013-05-22 14:11:00,
2013-05-22 09:16:00,62.4,57.5,29.62,WSW,244,0.1,1.2,84,0.00,OVC,,0.00,134.0,WeatherDisplay:10.37,2013-05-22 14:16:00,
2013-05-22 09:21:00,62.6,57.7,29.62,WSW,244,0.7,2.4,84,0.00,OVC,,0.00,144.0,WeatherDisplay:10.37,2013-05-22 14:21:00,
2013-05-22 09:26:00,62.6,57.7,29.62,WSW,244,0.0,0.0,84,0.00,OVC,,0.00,116.0,WeatherDisplay:10.37,2013-05-22 14:26:00,
2013-05-22 09:31:00,62.7,57.5,29.62,WSW,244,0.0,0.0,83,0.00,OVC,,0.00,107.0,WeatherDisplay:10.37,2013-05-22 14:31:00,
2013-05-22 09:36:00,62.9,58.0,29.62,WSW,244,0.0,0.0,84,0.00,OVC,,0.00,123.0,WeatherDisplay:10.37,2013-05-22 14:36:00,
2013-05-22 09:41:00,62.9,58.0,29.62,WSW,244,0.0,0.0,84,0.00,OVC,,0.00,137.0,WeatherDisplay:10.37,2013-05-22 14:41:00,
2013-05-22 09:46:00,63.1,58.2,29.62,WSW,244,0.0,0.0,84,0.00,OVC,,0.00,149.0,WeatherDisplay:10.37,2013-05-22 14:46:00,
2013-05-22 09:51:00,63.2,58.3,29.62,WSW,244,0.0,0.0,84,0.00,OVC,,0.00,181.0,WeatherDisplay:10.37,2013-05-22 14:51:00,
2013-05-22 09:56:00,63.4,58.5,29.62,WSW,244,0.0,1.2,84,0.00,OVC,,0.00,199.0,WeatherDisplay:10.37,2013-05-22 14:56:00,
2013-05-22 10:01:00,63.5,58.6,29.61,WSW,244,0.0,1.2,84,0.00,OVC,,0.00,197.0,WeatherDisplay:10.37,2013-05-22 15:01:00,
2013-05-22 10:06:00,63.5,58.2,29.61,WSW,244,0.0,0.0,83,0.00,OVC,,0.00,209.0,WeatherDisplay:10.37,2013-05-22 15:06:00,
2013-05-22 10:11:00,63.9,58.6,29.61,WSW,244,0.0,0.0,83,0.00,OVC,,0.00,200.0,WeatherDisplay:10.37,2013-05-22 15:11:00,
2013-05-22 10:16:00,64.0,59.1,29.61,WSW,244,0.0,0.0,84,0.00,OVC,,0.00,199.0,WeatherDisplay:10.37,2013-05-22 15:16:00,
2013-05-22 10:21:00,64.2,58.9,29.61,WSW,244,0.0,0.0,83,0.00,OVC,,0.00,144.0,WeatherDisplay:10.37,2013-05-22 15:21:00,
2013-05-22 10:26:00,64.3,59.0,29.61,WSW,244,0.1,1.2,83,0.00,OVC,,0.00,178.0,WeatherDisplay:10.37,2013-05-22 15:26:00,
2013-05-22 10:31:00,64.3,58.7,29.62,WSW,244,0.0,0.0,82,0.00,OVC,,0.00,188.0,WeatherDisplay:10.37,2013-05-22 15:31:00,
2013-05-22 10:36:00,64.5,58.9,29.62,WSW,244,0.1,1.2,82,0.00,OVC,,0.00,206.0,WeatherDisplay:10.37,2013-05-22 15:36:00,
2013-05-22 10:41:00,64.7,59.4,29.62,WSW,244,0.2,2.3,83,0.00, +RA,,0.00,204.0,WeatherDisplay:10.37,2013-05-22 15:41:00,
2013-05-22 10:46:00,64.5,59.2,29.62,West,259,2.4,4.8,83,0.00, +RA,,0.00,237.0,WeatherDisplay:10.37,2013-05-22 15:46:00,
2013-05-22 10:51:00,64.2,59.3,29.62,WNW,293,0.0,1.2,84,0.00, +RA,,0.00,255.0,WeatherDisplay:10.37,2013-05-22 15:51:00,
2013-05-22 10:56:00,63.9,59.3,29.62,NW,309,3.0,4.8,85,0.00, +RA,,0.00,185.0,WeatherDisplay:10.37,2013-05-22 15:56:00,
2013-05-22 11:01:00,63.5,59.2,29.62,WNW,288,0.1,1.2,86,0.00, +RA,,0.00,141.0,WeatherDisplay:10.37,2013-05-22 16:01:00,
2013-05-22 11:06:00,63.4,59.5,29.62,WNW,286,0.0,0.0,87,0.00, +RA,,0.00,123.0,WeatherDisplay:10.37,2013-05-22 16:06:00,
2013-05-22 11:11:00,63.2,59.3,29.62,NW,326,1.9,4.8,87,0.00, +RA,,0.00,169.0,WeatherDisplay:10.37,2013-05-22 16:11:00,
2013-05-22 11:16:00,63.1,59.5,29.62,NW,308,1.9,4.8,88,0.00, +RA,,0.00,114.0,WeatherDisplay:10.37,2013-05-22 16:16:00,
2013-05-22 11:21:00,62.9,59.3,29.62,NW,304,0.8,4.8,88,0.00, +RA,,0.00,84.0,WeatherDisplay:10.37,2013-05-22 16:21:00,
2013-05-22 11:26:00,62.9,59.3,29.62,NW,306,0.1,1.2,88,0.00, +RA,,0.00,58.0,WeatherDisplay:10.37,2013-05-22 16:26:00,
2013-05-22 11:31:00,62.9,59.6,29.62,WNW,290,0.3,2.4,89,0.00, +RA,,0.00,44.0,WeatherDisplay:10.37,2013-05-22 16:31:00,
2013-05-22 11:36:00,62.9,59.6,29.62,WNW,291,0.0,0.0,89,0.00, +RA,,0.00,47.0,WeatherDisplay:10.37,2013-05-22 16:36:00,
2013-05-22 11:41:00,62.7,59.7,29.62,WNW,291,0.0,0.0,90,0.00,OVC,,0.00,46.0,WeatherDisplay:10.37,2013-05-22 16:41:00,
2013-05-22 11:46:00,62.7,60.0,29.62,WNW,291,0.0,0.0,91,0.00,OVC,,0.00,46.0,WeatherDisplay:10.37,2013-05-22 16:46:00,
2013-05-22 11:51:00,62.9,60.2,29.62,WNW,291,0.0,0.0,91,0.00,OVC,,0.00,40.0,WeatherDisplay:10.37,2013-05-22 16:51:00,
2013-05-22 11:56:00,62.9,60.2,29.62,WNW,291,0.0,0.0,91,0.00,OVC,,0.00,32.0,WeatherDisplay:10.37,2013-05-22 16:56:00,
2013-05-22 12:01:00,62.7,60.0,29.62,WNW,291,0.0,0.0,91,0.01, +RA,,0.01,25.0,WeatherDisplay:10.37,2013-05-22 17:01:00,
2013-05-22 12:06:00,62.6,60.2,29.62,WNW,291,0.0,0.0,92,0.01, +RA,,0.01,23.0,WeatherDisplay:10.37,2013-05-22 17:06:00,
2013-05-22 12:11:00,62.4,60.0,29.62,WNW,291,0.1,1.2,92,0.01, +RA,,0.01,11.0,WeatherDisplay:10.37,2013-05-22 17:11:00,
2013-05-22 12:16:00,62.0,59.6,29.62,NNW,333,0.0,1.2,92,0.06, +RA,,0.07,12.0,WeatherDisplay:10.37,2013-05-22 17:16:00,
2013-05-22 12:21:00,61.8,59.8,29.62,NW,323,0.1,1.2,93,0.20,RA,,0.22,35.0,WeatherDisplay:10.37,2013-05-22 17:21:00,
2013-05-22 12:26:00,61.8,60.1,29.62,NW,322,0.0,0.0,94,0.36,RA,,0.37,30.0,WeatherDisplay:10.37,2013-05-22 17:26:00,
2013-05-22 12:31:00,61.6,59.9,29.62,NW,323,0.0,1.2,94,0.44,RA,,0.44,25.0,WeatherDisplay:10.37,2013-05-22 17:31:00,
2013-05-22 12:36:00,61.5,59.8,29.62,SW,236,4.5,6.0,94,0.49,RA,,0.49,7.0,WeatherDisplay:10.37,2013-05-22 17:36:00,
2013-05-22 12:41:00,60.7,59.0,29.62,WSW,248,0.1,4.6,94,0.58, +RA,,0.61,26.0,WeatherDisplay:10.37,2013-05-22 17:41:00,
2013-05-22 12:46:00,60.2,58.8,29.62,WNW,302,3.4,6.0,95,0.72, +RA,,0.72,62.0,WeatherDisplay:10.37,2013-05-22 17:46:00,
2013-05-22 12:51:00,60.1,59.0,29.62,WNW,300,0.0,4.6,96,0.73, +RA,,0.73,54.0,WeatherDisplay:10.37,2013-05-22 17:51:00,
2013-05-22 12:56:00,60.2,59.1,29.62,West,269,3.2,4.8,96,0.74, +RA,,0.74,18.0,WeatherDisplay:10.37,2013-05-22 17:56:00,
2013-05-22 13:01:00,59.9,58.8,29.63,NW,304,3.4,4.8,96,0.80, +RA,,0.81,47.0,WeatherDisplay:10.37,2013-05-22 18:01:00,
2013-05-22 13:06:00,59.9,58.8,29.63,NW,304,0.0,1.2,96,0.86, +RA,,0.88,25.0,WeatherDisplay:10.37,2013-05-22 18:06:00,
2013-05-22 13:11:00,59.8,58.9,29.63,NW,304,0.0,0.0,97,0.89,RA,,0.90,42.0,WeatherDisplay:10.37,2013-05-22 18:11:00,
2013-05-22 13:16:00,59.8,58.9,29.63,NW,304,0.0,1.2,97,0.84,RA,,0.90,56.0,WeatherDisplay:10.37,2013-05-22 18:16:00,
2013-05-22 13:21:00,59.6,58.7,29.63,NNW,329,0.0,0.0,97,0.66,OVC,,0.90,79.0,WeatherDisplay:10.37,2013-05-22 18:21:00,
2013-05-22 13:26:00,59.6,58.7,29.63,NNW,329,0.0,3.5,97,0.56,OVC,,0.90,88.0,WeatherDisplay:10.37,2013-05-22 18:26:00,
2013-05-22 13:31:00,59.6,58.7,29.63,NNW,329,0.0,1.2,97,0.48,RA,,0.92,93.0,WeatherDisplay:10.37,2013-05-22 18:31:00,
2013-05-22 13:36:00,59.8,58.9,29.63,NW,317,1.1,4.8,97,0.43,RA,,0.92,123.0,WeatherDisplay:10.37,2013-05-22 18:36:00,
2013-05-22 13:41:00,59.6,58.7,29.63,WSW,258,0.8,3.5,97,0.34,OVC,,0.92,132.0,WeatherDisplay:10.37,2013-05-22 18:41:00,
2013-05-22 13:46:00,59.5,58.6,29.64,WNW,288,0.0,2.3,97,0.21,OVC,,0.92,111.0,WeatherDisplay:10.37,2013-05-22 18:46:00,
2013-05-22 13:51:00,59.5,58.6,29.64,West,265,0.0,0.0,97,0.19,OVC,,0.92,100.0,WeatherDisplay:10.37,2013-05-22 18:51:00,
2013-05-22 13:56:00,59.5,58.6,29.64,NNW,343,1.2,6.0,97,0.17,OVC,,0.92,74.0,WeatherDisplay:10.37,2013-05-22 18:56:00,
2013-05-22 14:01:00,59.3,58.4,29.64,WNW,298,2.0,4.8,97,0.10,OVC,,0.92,98.0,WeatherDisplay:10.37,2013-05-22 19:01:00,
2013-05-22 14:06:00,59.3,58.4,29.64,WNW,298,0.0,3.5,97,0.05,OVC,,0.92,109.0,WeatherDisplay:10.37,2013-05-22 19:06:00,
2013-05-22 14:11:00,59.5,58.9,29.64,WNW,298,0.0,0.0,98,0.01,OVC,,0.92,79.0,WeatherDisplay:10.37,2013-05-22 19:11:00,
2013-05-22 14:16:00,59.3,58.4,29.64,WNW,298,0.0,0.0,97,0.01,OVC,,0.92,63.0,WeatherDisplay:10.37,2013-05-22 19:16:00,
2013-05-22 14:21:00,59.3,58.7,29.64,WNW,298,0.0,0.0,98,0.01,OVC,,0.92,79.0,WeatherDisplay:10.37,2013-05-22 19:21:00,
2013-05-22 14:26:00,59.5,58.9,29.64,WNW,298,0.0,0.0,98,0.01,OVC,,0.92,72.0,WeatherDisplay:10.37,2013-05-22 19:26:00,
2013-05-22 14:31:00,59.5,58.9,29.64,WNW,298,0.0,0.0,98,0.00,OVC,,0.92,83.0,WeatherDisplay:10.37,2013-05-22 19:31:00,
2013-05-22 14:36:00,59.6,59.0,29.64,WNW,298,0.0,0.0,98,0.00,OVC,,0.92,127.0,WeatherDisplay:10.37,2013-05-22 19:36:00,
2013-05-22 14:41:00,59.8,59.2,29.64,WNW,298,0.0,0.0,98,0.00,OVC,,0.92,171.0,WeatherDisplay:10.37,2013-05-22 19:41:00,
2013-05-22 14:46:00,59.9,59.3,29.64,WNW,298,0.0,0.0,98,0.00,OVC,,0.92,84.0,WeatherDisplay:10.37,2013-05-22 19:46:00,
2013-05-22 14:51:00,60.1,59.5,29.64,ENE,65,1.2,6.0,98,0.00,OVC,,0.92,90.0,WeatherDisplay:10.37,2013-05-22 19:51:00,
2013-05-22 14:56:00,60.4,59.8,29.64,SE,128,1.4,7.2,98,0.00,OVC,,0.92,123.0,WeatherDisplay:10.37,2013-05-22 19:56:00,
2013-05-22 15:01:00,60.7,60.1,29.64,NNE,30,0.5,2.4,98,0.00,-RA,,0.92,69.0,WeatherDisplay:10.37,2013-05-22 20:01:00,
2013-05-22 15:06:00,60.5,59.9,29.64,East,79,3.0,6.0,98,0.00,-RA,,0.92,46.0,WeatherDisplay:10.37,2013-05-22 20:06:00,
2013-05-22 15:11:00,60.5,59.9,29.64,East,89,2.7,7.2,98,0.00,-RA,,0.92,67.0,WeatherDisplay:10.37,2013-05-22 20:11:00,
2013-05-22 15:16:00,60.4,59.8,29.65,ENE,66,4.8,9.6,98,0.00,-RA,,0.92,83.0,WeatherDisplay:10.37,2013-05-22 20:16:00,
2013-05-22 15:21:00,60.2,59.6,29.65,East,101,3.6,6.0,98,0.00,-RA,,0.92,84.0,WeatherDisplay:10.37,2013-05-22 20:21:00,
2013-05-22 15:26:00,60.2,59.6,29.65,ENE,67,1.8,6.0,98,0.00,-RA,,0.92,65.0,WeatherDisplay:10.37,2013-05-22 20:26:00,
2013-05-22 15:31:00,60.2,59.6,29.65,SE,124,4.6,9.6,98,0.00,-RA,,0.92,58.0,WeatherDisplay:10.37,2013-05-22 20:31:00,
2013-05-22 15:36:00,60.2,59.3,29.65,East,89,5.3,7.2,97,0.00,-RA,,0.92,54.0,WeatherDisplay:10.37,2013-05-22 20:36:00,
2013-05-22 15:41:00,59.9,59.0,29.65,ENE,63,1.5,3.6,97,0.00,-RA,,0.92,69.0,WeatherDisplay:10.37,2013-05-22 20:41:00,
2013-05-22 15:46:00,59.9,59.0,29.65,ESE,102,5.4,8.4,97,0.00,-RA,,0.92,63.0,WeatherDisplay:10.37,2013-05-22 20:46:00,
2013-05-22 15:51:00,59.8,58.9,29.65,ENE,78,1.2,8.1,97,0.00,-RA,,0.92,65.0,WeatherDisplay:10.37,2013-05-22 20:51:00,
2013-05-22 15:56:00,59.9,59.0,29.65,ENE,59,1.3,4.8,97,0.00,-RA,,0.92,77.0,WeatherDisplay:10.37,2013-05-22 20:56:00,
2013-05-22 16:01:00,59.8,58.9,29.65,East,82,0.2,6.9,97,0.00,-RA,,0.92,97.0,WeatherDisplay:10.37,2013-05-22 21:01:00,
2013-05-22 16:06:00,59.9,59.0,29.65,East,90,0.1,2.3,97,0.00,-RA,,0.92,144.0,WeatherDisplay:10.37,2013-05-22 21:06:00,
2013-05-22 16:11:00,59.8,58.9,29.65,East,96,1.8,8.1,97,0.00,-RA,,0.92,155.0,WeatherDisplay:10.37,2013-05-22 21:11:00,
2013-05-22 16:16:00,59.8,58.9,29.65,East,83,0.5,4.6,97,0.00,-RA,,0.92,151.0,WeatherDisplay:10.37,2013-05-22 21:16:00,
2013-05-22 16:21:00,59.9,59.0,29.65,NE,35,0.2,6.9,97,0.00,BKN,,0.92,149.0,WeatherDisplay:10.37,2013-05-22 21:21:00,
2013-05-22 16:26:00,59.9,59.0,29.65,ENE,78,0.1,1.2,97,0.00,BKN,,0.92,130.0,WeatherDisplay:10.37,2013-05-22 21:26:00,
2013-05-22 16:31:00,59.9,59.0,29.65,East,84,0.7,3.6,97,0.00,BKN,,0.92,151.0,WeatherDisplay:10.37,2013-05-22 21:31:00,
2013-05-22 16:36:00,59.9,58.8,29.65,East,95,4.8,7.2,96,0.00,BKN,,0.92,178.0,WeatherDisplay:10.37,2013-05-22 21:36:00,
2013-05-22 16:41:00,60.1,59.2,29.65,ENE,60,1.4,3.6,97,0.00,BKN,,0.92,193.0,WeatherDisplay:10.37,2013-05-22 21:41:00,
2013-05-22 16:46:00,60.1,59.0,29.66,NNE,19,1.3,4.8,96,0.00,BKN,,0.92,171.0,WeatherDisplay:10.37,2013-05-22 21:46:00,
2013-05-22 16:51:00,60.2,59.1,29.66,ESE,107,2.1,6.0,96,0.00,BKN,,0.92,171.0,WeatherDisplay:10.37,2013-05-22 21:51:00,
2013-05-22 16:56:00,60.1,58.7,29.66,East,90,2.4,9.2,95,0.00,BKN,,0.92,151.0,WeatherDisplay:10.37,2013-05-22 21:56:00,
2013-05-22 17:01:00,59.9,58.5,29.66,East,81,5.3,8.4,95,0.00,BKN,,0.92,135.0,WeatherDisplay:10.37,2013-05-22 22:01:00,
2013-05-22 17:06:00,59.9,58.5,29.66,East,93,0.0,1.2,95,0.00,BKN,,0.92,107.0,WeatherDisplay:10.37,2013-05-22 22:06:00,
2013-05-22 17:11:00,59.9,58.5,29.66,ENE,65,0.0,0.0,95,0.00,-RA,,0.92,69.0,WeatherDisplay:10.37,2013-05-22 22:11:00,
2013-05-22 17:16:00,60.1,58.7,29.66,ESE,111,0.1,1.2,95,0.00,-RA,,0.92,81.0,WeatherDisplay:10.37,2013-05-22 22:16:00,
2013-05-22 17:21:00,60.1,58.4,29.66,ESE,105,0.0,6.9,94,0.00,OVC,,0.92,91.0,WeatherDisplay:10.37,2013-05-22 22:21:00,
2013-05-22 17:26:00,60.1,58.4,29.66,ESE,117,0.0,1.2,94,0.00,OVC,,0.92,77.0,WeatherDisplay:10.37,2013-05-22 22:26:00,
2013-05-22 17:31:00,60.1,58.4,29.67,East,92,1.4,2.4,94,0.00,OVC,,0.92,76.0,WeatherDisplay:10.37,2013-05-22 22:31:00,
2013-05-22 17:36:00,60.1,58.4,29.67,ENE,64,0.5,4.6,94,0.00,OVC,,0.92,63.0,WeatherDisplay:10.37,2013-05-22 22:36:00,
2013-05-22 17:41:00,59.9,58.2,29.67,ENE,57,0.0,0.0,94,0.00,OVC,,0.92,69.0,WeatherDisplay:10.37,2013-05-22 22:41:00,
2013-05-22 17:46:00,59.8,58.1,29.67,NNE,32,3.5,8.4,94,0.00,OVC,,0.92,67.0,WeatherDisplay:10.37,2013-05-22 22:46:00,
2013-05-22 17:51:00,59.6,57.9,29.67,ESE,119,2.0,6.0,94,0.00,OVC,,0.92,63.0,WeatherDisplay:10.37,2013-05-22 22:51:00,
2013-05-22 17:56:00,59.5,57.8,29.67,NNE,21,0.0,1.2,94,0.00,OVC,,0.92,56.0,WeatherDisplay:10.37,2013-05-22 22:56:00,
2013-05-22 18:01:00,59.5,57.8,29.67,ENE,75,0.0,3.5,94,0.00,OVC,,0.92,62.0,WeatherDisplay:10.37,2013-05-22 23:01:00,
2013-05-22 18:06:00,59.5,57.8,29.67,NE,42,0.2,3.6,94,0.00,OVC,,0.92,67.0,WeatherDisplay:10.37,2013-05-22 23:06:00,
2013-05-22 18:11:00,59.5,57.8,29.67,NE,51,0.0,3.5,94,0.00,OVC,,0.92,65.0,WeatherDisplay:10.37,2013-05-22 23:11:00,
2013-05-22 18:16:00,59.5,57.8,29.67,ENE,78,0.0,0.0,94,0.00,OVC,,0.92,72.0,WeatherDisplay:10.37,2013-05-22 23:16:00,
2013-05-22 18:21:00,59.6,57.9,29.67,NE,51,2.7,4.8,94,0.00, +RA,,0.92,63.0,WeatherDisplay:10.37,2013-05-22 23:21:00,
2013-05-22 18:26:00,59.6,57.9,29.67,East,87,2.5,4.8,94,0.00, +RA,,0.92,53.0,WeatherDisplay:10.37,2013-05-22 23:26:00,
2013-05-22 18:31:00,59.6,57.9,29.67,East,84,0.0,1.2,94,0.00, +RA,,0.92,46.0,WeatherDisplay:10.37,2013-05-22 23:31:00,
2013-05-22 18:36:00,59.6,57.9,29.67,ENE,67,0.1,1.2,94,0.00, +RA,,0.92,44.0,WeatherDisplay:10.37,2013-05-22 23:36:00,
2013-05-22 18:41:00,59.6,57.9,29.67,ENE,61,0.0,0.0,94,0.00,OVC,,0.92,32.0,WeatherDisplay:10.37,2013-05-22 23:41:00,
2013-05-22 18:46:00,59.6,57.9,29.68,ENE,78,0.0,2.3,94,0.00,OVC,,0.92,21.0,WeatherDisplay:10.37,2013-05-22 23:46:00,
2013-05-22 18:51:00,59.5,57.8,29.68,North,5,2.6,6.0,94,0.00,OVC,,0.92,14.0,WeatherDisplay:10.37,2013-05-22 23:51:00,
2013-05-22 18:56:00,59.3,57.6,29.68,NE,44,1.5,6.9,94,0.00,OVC,,0.92,11.0,WeatherDisplay:10.37,2013-05-22 23:56:00,
2013-05-22 19:01:00,59.2,57.5,29.69,NNE,16,4.1,8.1,94,0.00,OVC,,0.92,11.0,WeatherDisplay:10.37,2013-05-23 00:01:00,
2013-05-22 19:06:00,59.0,57.3,29.69,ESE,111,2.7,6.9,94,0.00,OVC,,0.92,9.0,WeatherDisplay:10.37,2013-05-23 00:06:00,
2013-05-22 19:11:00,59.0,57.3,29.69,NE,42,3.6,5.8,94,0.00,OVC,,0.92,7.0,WeatherDisplay:10.37,2013-05-23 00:11:00,
2013-05-22 19:16:00,59.0,57.3,29.69,ENE,72,0.7,4.6,94,0.00,OVC,,0.92,5.0,WeatherDisplay:10.37,2013-05-23 00:16:00,
2013-05-22 19:21:00,59.0,57.3,29.69,ENE,69,0.0,0.0,94,0.00,-RA,,0.92,5.0,WeatherDisplay:10.37,2013-05-23 00:21:00,
2013-05-22 19:26:00,59.0,57.3,29.69,East,90,0.0,0.0,94,0.00,-RA,,0.92,0.0,WeatherDisplay:10.37,2013-05-23 00:26:00,
2013-05-22 19:31:00,58.9,57.2,29.70,ENE,77,0.4,8.1,94,0.00,-RA,,0.92,0.0,WeatherDisplay:10.37,2013-05-23 00:31:00,
2013-05-22 19:36:00,58.9,57.2,29.70,NNE,22,1.7,4.8,94,0.00,-RA,,0.92,0.0,WeatherDisplay:10.37,2013-05-23 00:36:00,
2013-05-22 19:41:00,58.9,57.2,29.70,NE,54,2.2,4.8,94,0.00,-RA,,0.92,0.0,WeatherDisplay:10.37,2013-05-23 00:41:00,
2013-05-22 19:46:00,58.9,57.5,29.71,NE,54,0.0,0.0,95,0.00,-RA,,0.92,0.0,WeatherDisplay:10.37,2013-05-23 00:46:00,
2013-05-22 19:51:00,58.9,57.5,29.71,NE,54,0.0,0.0,95,0.00,-RA,,0.92,0.0,WeatherDisplay:10.37,2013-05-23 00:51:00,
2013-05-22 19:56:00,58.9,57.5,29.71,ESE,103,3.5,6.0,95,0.00,-RA,,0.92,0.0,WeatherDisplay:10.37,2013-05-23 00:56:00,
2013-05-22 20:01:00,58.7,57.3,29.71,ESE,119,0.0,5.8,95,0.00,-RA,,0.92,0.0,WeatherDisplay:10.37,2013-05-23 01:01:00,
2013-05-22 20:06:00,58.7,57.3,29.71,East,85,0.2,1.2,95,0.00,-RA,,0.92,0.0,WeatherDisplay:10.37,2013-05-23 01:06:00,
2013-05-22 20:11:00,58.6,57.2,29.71,NE,44,2.5,7.2,95,0.00,-RA,,0.92,0.0,WeatherDisplay:10.37,2013-05-23 01:11:00,
2013-05-22 20:16:00,58.4,57.0,29.72,ENE,67,0.9,4.8,95,0.00,-RA,,0.92,0.0,WeatherDisplay:10.37,2013-05-23 01:16:00,
2013-05-22 20:21:00,58.3,56.9,29.72,ENE,63,2.9,6.0,95,0.00,-RA,,0.92,0.0,WeatherDisplay:10.37,2013-05-23 01:21:00,
2013-05-22 20:26:00,58.3,56.6,29.72,North,360,3.6,8.1,94,0.00,-RA,,0.92,0.0,WeatherDisplay:10.37,2013-05-23 01:26:00,
2013-05-22 20:31:00,58.1,56.4,29.72,ENE,58,3.8,4.8,94,0.00,-RA,,0.92,0.0,WeatherDisplay:10.37,2013-05-23 01:31:00,
2013-05-22 20:36:00,58.1,56.4,29.72,NE,51,1.8,5.8,94,0.00,-RA,,0.92,0.0,WeatherDisplay:10.37,2013-05-23 01:36:00,
2013-05-22 20:41:00,58.0,56.3,29.72,ENE,67,1.9,5.8,94,0.00,-RA,,0.92,0.0,WeatherDisplay:10.37,2013-05-23 01:41:00,
2013-05-22 20:46:00,57.8,56.1,29.72,NNE,19,7.3,8.4,94,0.00,-RA,,0.92,0.0,WeatherDisplay:10.37,2013-05-23 01:46:00,
2013-05-22 20:51:00,57.6,55.9,29.72,NNE,25,2.0,5.8,94,0.00,-RA,,0.92,0.0,WeatherDisplay:10.37,2013-05-23 01:51:00,
2013-05-22 20:56:00,57.6,55.6,29.72,NNE,25,2.1,6.9,93,0.00,-RA,,0.92,0.0,WeatherDisplay:10.37,2013-05-23 01:56:00,
2013-05-22 21:01:00,57.6,55.6,29.74,NNE,28,3.8,8.1,93,0.00,-RA,,0.92,0.0,WeatherDisplay:10.37,2013-05-23 02:01:00,
2013-05-22 21:06:00,57.5,55.5,29.74,East,94,6.8,13.2,93,0.00,-RA,,0.92,0.0,WeatherDisplay:10.37,2013-05-23 02:06:00,
2013-05-22 21:11:00,57.3,55.6,29.74,NNE,22,1.5,4.8,94,0.00,-RA,,0.92,0.0,WeatherDisplay:10.37,2013-05-23 02:11:00,
2013-05-22 21:16:00,57.3,55.6,29.75,NE,54,0.0,3.5,94,0.00,-RA,,0.92,0.0,WeatherDisplay:10.37,2013-05-23 02:16:00,
2013-05-22 21:21:00,57.2,55.5,29.75,ENE,61,2.0,6.0,94,0.00,-RA,,0.92,0.0,WeatherDisplay:10.37,2013-05-23 02:21:00,
2013-05-22 21:26:00,57.0,55.3,29.75,NE,48,5.3,7.2,94,0.00,-RA,,0.92,0.0,WeatherDisplay:10.37,2013-05-23 02:26:00,
2013-05-22 21:32:00,56.7,55.0,29.75,ENE,67,3.6,6.9,94,0.00,-RA,,0.92,0.0,WeatherDisplay:10.37,2013-05-23 02:32:00,
2013-05-22 21:37:00,56.6,54.9,29.75,NE,36,2.2,6.0,94,0.00,-RA,,0.92,0.0,WeatherDisplay:10.37,2013-05-23 02:37:00,
2013-05-22 21:42:00,56.6,54.9,29.75,NE,44,4.5,8.4,94,0.00,-RA,,0.92,0.0,WeatherDisplay:10.37,2013-05-23 02:42:00,
2013-05-22 21:47:00,56.5,54.8,29.76,NNE,33,1.0,7.0,94,0.00,-RA,,0.92,0.0,WeatherDisplay:10.37,2013-05-23 02:47:00,
2013-05-22 21:52:00,56.5,54.8,29.76,North,360,2.9,9.6,94,0.00,-RA,,0.92,0.0,WeatherDisplay:10.37,2013-05-23 02:52:00,
2013-05-22 21:57:00,56.2,54.5,29.76,ENE,67,2.6,7.2,94,0.01,-RA,,0.93,0.0,WeatherDisplay:10.37,2013-05-23 02:57:00,
2013-05-22 22:02:00,56.0,54.3,29.77,East,80,0.7,4.6,94,0.02,RA,,0.94,0.0,WeatherDisplay:10.37,2013-05-23 03:02:00,
2013-05-22 22:07:00,55.9,54.2,29.77,NE,46,0.5,3.6,94,0.03,RA,,0.95,0.0,WeatherDisplay:10.37,2013-05-23 03:07:00,
2013-05-22 22:12:00,55.9,54.5,29.77,NE,53,1.5,4.8,95,0.05,RA,,0.97,0.0,WeatherDisplay:10.37,2013-05-23 03:12:00,
2013-05-22 22:17:00,55.7,54.3,29.78,NE,50,1.0,8.0,95,0.07,RA,,0.99,0.0,WeatherDisplay:10.37,2013-05-23 03:17:00,
2013-05-22 22:22:00,55.7,54.3,29.78,NE,36,0.9,3.6,95,0.07,-RA,,0.99,0.0,WeatherDisplay:10.37,2013-05-23 03:22:00,
2013-05-22 22:27:00,55.6,54.2,29.78,NNE,27,0.0,1.2,95,0.07,-RA,,0.99,0.0,WeatherDisplay:10.37,2013-05-23 03:27:00,
2013-05-22 22:32:00,55.4,54.0,29.79,ENE,63,2.0,7.2,95,0.08,-RA,,1.00,0.0,WeatherDisplay:10.37,2013-05-23 03:32:00,
2013-05-22 22:37:00,55.3,53.9,29.79,NNE,26,3.6,4.8,95,0.08,-RA,,1.00,0.0,WeatherDisplay:10.37,2013-05-23 03:37:00,
2013-05-22 22:42:00,54.8,53.4,29.79,NNE,23,4.6,7.2,95,0.08,BKN,,1.00,0.0,WeatherDisplay:10.37,2013-05-23 03:42:00,
2013-05-22 22:47:00,54.5,53.1,29.79,NNE,28,6.7,10.8,95,0.09,RA,,1.01,0.0,WeatherDisplay:10.37,2013-05-23 03:47:00,
2013-05-22 22:52:00,54.2,52.8,29.79,NNE,17,2.9,4.8,95,0.09,RA,,1.01,0.0,WeatherDisplay:10.37,2013-05-23 03:52:00,
2013-05-22 22:57:00,54.2,53.1,29.79,NNE,19,3.0,9.2,96,0.09,BKN,,1.01,0.0,WeatherDisplay:10.37,2013-05-23 03:57:00,
2013-05-22 23:01:00,54.1,53.0,29.80,NW,311,1.6,4.6,96,0.08,BKN,,1.01,0.0,WeatherDisplay:10.37,2013-05-23 04:01:00,
2013-05-22 23:03:00,54.1,53.0,29.80,NNE,18,3.8,4.8,96,0.07,BKN,,1.01,0.0,WeatherDisplay:10.37,2013-05-23 04:03:00,
2013-05-22 23:08:00,54.1,53.0,29.80,NNE,20,0.0,0.0,96,0.07,RA,,1.02,0.0,WeatherDisplay:10.37,2013-05-23 04:08:00,
2013-05-22 23:13:00,53.9,52.8,29.80,NNE,20,0.0,0.0,96,0.05,RA,,1.02,0.0,WeatherDisplay:10.37,2013-05-23 04:13:00,
2013-05-22 23:18:00,53.9,52.8,29.81,NNE,13,0.6,3.6,96,0.05,RA,,1.03,0.0,WeatherDisplay:10.37,2013-05-23 04:18:00,
2013-05-22 23:23:00,53.8,52.7,29.81,North,360,1.7,4.8,96,0.06,RA,,1.04,0.0,WeatherDisplay:10.37,2013-05-23 04:23:00,
2013-05-22 23:28:00,53.6,52.5,29.81,NNE,23,1.5,4.8,96,0.07,RA,,1.06,0.0,WeatherDisplay:10.37,2013-05-23 04:28:00,
2013-05-22 23:33:00,53.2,52.1,29.82,NE,38,1.9,3.6,96,0.07,RA,,1.07,0.0,WeatherDisplay:10.37,2013-05-23 04:33:00,
2013-05-22 23:38:00,53.1,52.0,29.82,NE,34,0.0,1.2,96,0.08,RA,,1.08,0.0,WeatherDisplay:10.37,2013-05-23 04:38:00,
2013-05-22 23:43:00,52.9,51.8,29.82,NE,41,3.8,7.2,96,0.09,-RA,,1.09,0.0,WeatherDisplay:10.37,2013-05-23 04:43:00,
2013-05-22 23:48:00,52.5,51.4,29.83,NE,40,3.7,4.8,96,0.08,-RA,,1.09,0.0,WeatherDisplay:10.37,2013-05-23 04:48:00,
2013-05-22 23:53:00,52.3,51.2,29.83,North,9,2.9,7.2,96,0.09,-RA,,1.10,0.0,WeatherDisplay:10.37,2013-05-23 04:53:00,
2013-05-22 23:58:00,52.3,51.2,29.83,NNE,17,0.9,4.8,96,0.09,-RA,,1.10,0.0,WeatherDisplay:10.37,2013-05-23 04:58:00,